EW8805 Weather Reports


Display with metric or nautical units.
time (UTC)temp
F
wind
direction
speed
MPH
gust
MPH
rain 1hr
in
rain 24hr
in
rain mn
in
humidity
%
barometer
mb
20190220190530 54 5 0.0 0.0 0.00 0.00 0.00 53 1023.4
20190220190053 55 5 0.0 0.0 0.00 0.00 0.00 53 1023.3
20190220185518 55 5 0.0 0.0 0.00 0.00 0.00 52 1023.3
20190220185016 55 6 0.0 0.0 0.00 0.00 0.00 52 1023.3
20190220184527 55 5 0.0 0.0 0.00 0.00 0.00 53 1023.2
20190220184032 55 5 0.0 0.0 0.00 0.00 0.00 52 1023.1
20190220183535 55 5 0.0 0.0 0.00 0.00 0.00 52 1023.1
20190220183033 56 5 0.0 1.0 0.00 0.00 0.00 51 1023.1
20190220182525 56 5 0.0 1.0 0.00 0.00 0.00 51 1023.0
20190220182027 56 8 0.0 1.0 0.00 0.00 0.00 51 1022.9
20190220181519 56 17 1.0 2.0 0.00 0.00 0.00 50 1022.9
20190220181023 56 34 1.0 2.0 0.00 0.00 0.00 50 1022.8
20190220180528 57 46 2.0 2.0 0.00 0.00 0.00 49 1022.8
20190220180045 57 66 1.0 2.0 0.00 0.00 0.00 50 1022.7
20190220175533 57 46 1.0 2.0 0.00 0.00 0.00 49 1022.7
20190220175020 57 34 0.0 1.0 0.00 0.00 0.00 50 1022.7
20190220174525 57 34 0.0 1.0 0.00 0.00 0.00 49 1022.6
20190220174032 57 34 0.0 1.0 0.00 0.00 0.00 49 1022.7
20190220173521 58 34 0.0 1.0 0.00 0.00 0.00 49 1022.6
20190220173020 58 34 0.0 1.0 0.00 0.00 0.00 49 1022.6
20190220172532 58 34 0.0 1.0 0.00 0.00 0.00 49 1022.6
20190220172019 58 18 0.0 1.0 0.00 0.00 0.00 48 1022.6
20190220171531 58 18 0.0 2.0 0.00 0.00 0.00 48 1022.6
20190220171017 59 58 1.0 2.0 0.00 0.00 0.00 48 1022.6
20190220170527 59 30 0.0 3.0 0.00 0.00 0.00 47 1022.5
20190220170040 59 44 2.0 3.0 0.00 0.00 0.00 47 1022.5
20190220165527 59 60 0.0 3.0 0.00 0.00 0.00 46 1022.5
20190220165033 59 354 1.0 3.0 0.00 0.00 0.00 45 1022.5
20190220164522 59 53 1.0 3.0 0.00 0.00 0.00 45 1022.5
20190220164028 59 51 2.0 4.0 0.00 0.00 0.00 45 1022.6
20190220163529 59 51 3.0 4.0 0.00 0.00 0.00 44 1022.5
20190220163034 60 64 1.0 5.0 0.00 0.00 0.00 45 1022.5
20190220162527 60 38 3.0 5.0 0.00 0.00 0.00 45 1022.6
20190220162029 60 51 1.0 5.0 0.00 0.00 0.00 44 1022.5
20190220161521 60 332 0.0 3.0 0.00 0.00 0.00 44 1022.6
20190220161023 60 84 1.0 3.0 0.00 0.00 0.00 44 1022.6
20190220160532 60 41 0.0 3.0 0.00 0.00 0.00 43 1022.6
20190220160048 60 81 1.0 3.0 0.00 0.00 0.00 44 1022.6
20190220155516 60 96 1.0 3.0 0.00 0.00 0.00 44 1022.6
20190220155022 60 50 1.0 5.0 0.00 0.00 0.00 45 1022.6
20190220154525 60 54 3.0 5.0 0.00 0.00 0.00 44 1022.5
20190220154021 60 103 1.0 3.0 0.00 0.00 0.00 44 1022.5
20190220153528 60 345 0.0 3.0 0.00 0.00 0.00 45 1022.6
20190220153030 60 77 3.0 3.0 0.00 0.00 0.00 44 1022.6
20190220152516 60 37 0.0 2.0 0.00 0.00 0.00 44 1022.5
20190220152018 60 38 1.0 3.0 0.00 0.00 0.00 45 1022.6
20190220151527 60 94 0.0 3.0 0.00 0.00 0.00 44 1022.7
20190220151030 61 65 1.0 3.0 0.00 0.00 0.00 46 1022.7
20190220150524 61 48 2.0 2.0 0.00 0.00 0.00 46 1022.6
20190220150047 61 239 0.0 3.0 0.00 0.00 0.00 46 1022.6
20190220145531 60 350 1.0 3.0 0.00 0.00 0.00 47 1022.7
20190220145025 60 99 0.0 4.0 0.00 0.00 0.00 47 1022.7
20190220144535 60 339 2.0 4.0 0.00 0.00 0.00 47 1022.7
20190220144021 60 285 0.0 2.0 0.00 0.00 0.00 48 1022.7
20190220143526 60 49 0.0 2.0 0.00 0.00 0.00 49 1022.7
20190220143031 59 71 0.0 2.0 0.00 0.00 0.00 49 1022.8
20190220142520 60 53 1.0 4.0 0.00 0.00 0.00 49 1022.8
20190220142024 60 360 2.0 4.0 0.00 0.00 0.00 52 1022.8
20190220141528 59 260 0.0 1.0 0.00 0.00 0.00 53 1022.8
20190220141027 58 118 0.0 1.0 0.00 0.00 0.00 54 1022.8
20190220140517 59 74 0.0 2.0 0.00 0.00 0.00 53 1022.9
20190220140048 58 360 0.0 4.0 0.00 0.00 0.00 56 1022.9
20190220135535 58 76 2.0 4.0 0.00 0.00 0.00 55 1022.9
20190220135018 57 84 0.0 3.0 0.00 0.00 0.00 57 1023.0
20190220134522 57 117 0.0 4.0 0.00 0.00 0.00 57 1023.0
20190220134027 57 50 2.0 4.0 0.00 0.00 0.00 55 1023.0
20190220133533 57 48 1.0 3.0 0.00 0.00 0.00 56 1023.1
20190220133018 57 288 0.0 3.0 0.00 0.00 0.00 59 1023.1
20190220132525 57 4 2.0 3.0 0.00 0.00 0.00 59 1023.1
20190220132031 56 336 0.0 3.0 0.00 0.00 0.00 62 1023.1
20190220131535 55 88 1.0 4.0 0.00 0.00 0.00 62 1023.2
20190220131034 55 101 2.0 4.0 0.00 0.00 0.00 63 1023.2
20190220130524 55 62 2.0 4.0 0.00 0.00 0.00 64 1023.3
20190220130044 54 60 2.0 5.0 0.00 0.00 0.00 65 1023.4
20190220125528 54 79 1.0 5.0 0.00 0.00 0.00 66 1023.4
20190220125030 54 74 1.0 3.0 0.00 0.00 0.00 66 1023.4
20190220124519 53 83 1.0 3.0 0.00 0.00 0.00 67 1023.5
20190220124020 52 161 0.0 3.0 0.00 0.00 0.00 69 1023.6
20190220123526 52 17 3.0 4.0 0.00 0.00 0.00 68 1023.5
20190220123026 52 5 0.0 3.0 0.00 0.00 0.00 71 1023.6
20190220122516 51 70 1.0 4.0 0.00 0.00 0.00 72 1023.7
20190220122020 51 54 2.0 5.0 0.00 0.00 0.00 72 1023.7
20190220121523 50 60 3.0 5.0 0.00 0.00 0.00 73 1023.9
20190220121024 50 27 2.0 4.0 0.00 0.00 0.00 75 1023.9
20190220120530 49 44 3.0 5.0 0.00 0.00 0.00 76 1023.9
20190220120048 48 52 2.0 5.0 0.00 0.00 0.00 78 1024.0
20190220115530 48 72 4.0 6.0 0.00 0.00 0.00 78 1024.0
20190220115032 47 77 2.0 6.0 0.00 0.00 0.00 79 1024.0
20190220114535 47 43 3.0 5.0 0.00 0.00 0.00 80 1024.1
20190220114021 47 63 2.0 4.0 0.00 0.00 0.00 80 1024.1
20190220113527 46 37 1.0 5.0 0.00 0.00 0.00 84 1024.1
20190220113031 46 73 2.0 5.0 0.00 0.00 0.00 83 1024.2
20190220112620 45 50 1.0 3.0 0.00 0.00 0.00 84 1024.2
20190220112016 45 53 1.0 5.0 0.00 0.00 0.00 85 1024.2
20190220111522 44 64 4.0 5.0 0.00 0.00 0.00 86 1024.2
20190220111021 43 337 0.0 6.0 0.00 0.00 0.00 89 1024.3
20190220110534 42 39 2.0 6.0 0.00 0.00 0.00 89 1024.2
20190220110046 42 64 4.0 6.0 0.00 0.00 0.00 89 1024.2
20190220105526 41 44 4.0 7.0 0.00 0.00 0.00 90 1024.1
20190220105030 41 73 5.0 7.0 0.00 0.00 0.00 91 1024.1
20190220104531 40 70 5.0 8.0 0.00 0.00 0.00 92 1024.1
20190220104029 40 53 5.0 7.0 0.00 0.00 0.00 91 1024.1
20190220103521 40 72 5.0 8.0 0.00 0.00 0.00 92 1024.1
20190220103027 40 66 5.0 7.0 0.00 0.00 0.00 92 1024.2
20190220102534 40 79 5.0 8.0 0.00 0.00 0.00 93 1024.1
20190220102016 39 63 3.0 6.0 0.00 0.00 0.00 94 1024.1
20190220101526 39 11 3.0 7.0 0.00 0.00 0.00 93 1024.1
20190220101031 39 57 5.0 7.0 0.00 0.00 0.00 94 1024.0
20190220100517 38 56 5.0 7.0 0.00 0.00 0.00 95 1024.0
20190220100040 38 71 4.0 7.0 0.00 0.00 0.00 95 1023.9
20190220095525 37 101 6.0 7.0 0.00 0.00 0.00 95 1023.9
20190220095021 37 51 3.0 6.0 0.00 0.00 0.00 95 1023.9
20190220094529 37 63 4.0 6.0 0.00 0.00 0.00 95 1024.0
20190220094034 36 70 4.0 5.0 0.00 0.00 0.00 95 1024.0
20190220093528 36 81 3.0 5.0 0.00 0.00 0.00 95 1024.0
20190220093020 36 25 4.0 6.0 0.00 0.00 0.00 95 1023.8
20190220092529 35 86 5.0 7.0 0.00 0.00 0.00 95 1023.8
20190220092035 35 57 6.0 7.0 0.00 0.00 0.00 94 1023.7
20190220091522 35 75 3.0 6.0 0.00 0.00 0.00 95 1023.7
20190220091022 35 75 4.0 6.0 0.00 0.00 0.00 94 1023.7
20190220090529 34 76 4.0 5.0 0.00 0.00 0.00 94 1023.6
20190220090051 34 85 4.0 5.0 0.00 0.00 0.00 93 1023.6
20190220085531 34 71 3.0 7.0 0.00 0.00 0.00 93 1023.5
20190220085032 35 64 5.0 7.0 0.00 0.00 0.00 92 1023.5
20190220084535 35 65 5.0 7.0 0.00 0.00 0.00 92 1023.5
20190220084016 35 81 5.0 7.0 0.00 0.00 0.00 91 1023.4
20190220083524 36 61 5.0 7.0 0.00 0.00 0.00 91 1023.4
20190220083021 36 62 4.0 6.0 0.00 0.00 0.00 90 1023.3
20190220082524 36 76 4.0 5.0 0.00 0.00 0.00 90 1023.3
20190220082019 36 89 3.0 4.0 0.00 0.00 0.00 90 1023.3
20190220081529 36 101 4.0 5.0 0.00 0.00 0.00 90 1023.1
20190220081031 36 81 2.0 4.0 0.00 0.00 0.00 90 1023.1
20190220080534 36 75 2.0 3.0 0.00 0.00 0.00 90 1023.1
20190220080053 36 79 1.0 3.0 0.00 0.00 0.00 90 1023.0
20190220075017 36 110 0.0 2.0 0.00 0.00 0.00 90 1022.9
20190220074521 36 85 1.0 1.0 0.00 0.00 0.00 90 1022.8
20190220074017 36 139 0.0 3.0 0.00 0.00 0.00 91 1022.8
20190220073534 35 82 1.0 3.0 0.00 0.00 0.00 91 1022.6
20190220073017 35 80 1.0 3.0 0.00 0.00 0.00 91 1022.5
20190220072526 35 122 2.0 2.0 0.00 0.00 0.00 91 1022.4
20190220072030 35 96 1.0 3.0 0.00 0.00 0.00 91 1022.4
20190220071516 35 87 2.0 3.0 0.00 0.00 0.00 91 1022.2
20190220071021 35 108 2.0 2.0 0.00 0.00 0.00 91 1022.2
20190220070532 35 100 1.0 2.0 0.00 0.00 0.00 91 1022.2
20190220070042 35 120 0.0 2.0 0.00 0.00 0.00 90 1022.2
20190220065528 35 95 1.0 2.0 0.00 0.00 0.00 90 1022.0
20190220065033 35 125 0.0 1.0 0.00 0.00 0.00 90 1022.0
20190220064523 35 123 0.0 1.0 0.00 0.00 0.00 90 1021.9
20190220064026 35 117 0.0 2.0 0.00 0.00 0.00 90 1021.8
20190220063520 36 115 1.0 2.0 0.00 0.00 0.00 90 1021.8
20190220063021 36 87 0.0 2.0 0.00 0.00 0.00 90 1021.7
20190220062528 36 118 0.0 2.0 0.00 0.00 0.00 90 1021.6
20190220062033 36 102 1.0 3.0 0.00 0.00 0.00 90 1021.6
20190220061523 36 99 1.0 2.0 0.00 0.00 0.00 89 1021.5
20190220061026 36 110 1.0 4.0 0.00 0.00 0.00 90 1021.5
20190220060529 36 81 1.0 4.0 0.00 0.00 0.00 90 1021.5
20190220060043 36 106 3.0 4.0 0.00 0.00 0.00 90 1021.4
20190220055529 36 101 3.0 4.0 0.00 0.00 0.00 89 1021.3
20190220055027 36 90 3.0 4.0 0.00 0.00 0.00 89 1021.4
20190220054516 36 61 3.0 5.0 0.00 0.00 0.00 89 1021.3
20190220054021 36 89 2.0 4.0 0.00 0.00 0.00 90 1021.3
20190220053530 36 85 2.0 5.0 0.00 0.00 0.00 89 1021.3
20190220053016 36 51 3.0 5.0 0.00 0.00 0.00 89 1021.3
20190220052528 36 86 2.0 4.0 0.00 0.00 0.00 89 1021.3
20190220052035 36 105 2.0 4.0 0.00 0.00 0.00 88 1021.3
20190220051520 36 114 2.0 4.0 0.00 0.00 0.00 88 1021.3
20190220051023 37 69 1.0 4.0 0.00 0.00 0.00 88 1021.3
20190220050534 37 60 3.0 4.0 0.00 0.00 0.00 88 1021.2
20190220050048 37 77 3.0 5.0 0.00 0.00 0.00 88 1021.2
20190220045516 37 96 3.0 5.0 0.00 0.00 0.00 88 1021.2
20190220045020 37 81 3.0 5.0 0.00 0.00 0.00 87 1021.2
20190220044532 37 63 3.0 4.0 0.00 0.00 0.00 87 1021.2
20190220044033 37 72 2.0 4.0 0.00 0.00 0.00 86 1021.1
20190220043528 37 72 2.0 5.0 0.00 0.00 0.00 86 1021.1
20190220043034 37 100 2.0 5.0 0.00 0.00 0.00 86 1021.2
20190220042525 38 99 2.0 6.0 0.00 0.00 0.00 85 1021.1
20190220042026 38 89 2.0 6.0 0.00 0.00 0.00 85 1021.1
20190220041517 38 71 4.0 6.0 0.00 0.00 0.00 85 1021.1
20190220041021 38 65 4.0 6.0 0.00 0.00 0.00 86 1021.0
20190220040529 38 75 4.0 5.0 0.00 0.00 0.00 86 1021.0
20190220040049 38 51 4.0 5.0 0.00 0.00 0.00 86 1021.0
20190220035534 38 76 3.0 4.0 0.00 0.00 0.00 86 1021.1
20190220035018 38 95 3.0 4.0 0.00 0.00 0.00 86 1021.1
20190220034522 38 81 4.0 5.0 0.00 0.00 0.00 86 1021.1
20190220034031 38 62 4.0 5.0 0.00 0.00 0.00 86 1021.1
20190220033529 38 68 3.0 4.0 0.00 0.00 0.00 87 1021.2
20190220033030 38 60 3.0 4.0 0.00 0.00 0.00 87 1021.2
20190220032519 38 63 3.0 4.0 0.00 0.00 0.00 88 1021.2
20190220032025 38 64 4.0 4.0 0.00 0.00 0.00 89 1021.3
20190220031534 37 34 3.0 5.0 0.00 0.00 0.00 91 1021.3
20190220031020 37 46 1.0 3.0 0.00 0.00 0.00 92 1021.3
20190220030533 36 31 1.0 3.0 0.00 0.00 0.00 92 1021.3
20190220030056 36 13 0.0 2.0 0.00 0.00 0.00 93 1021.3
20190220025518 36 356 1.0 2.0 0.00 0.00 0.00 93 1021.3
20190220025022 35 328 1.0 2.0 0.00 0.00 0.00 92 1021.3
20190220024532 35 282 1.0 1.0 0.00 0.00 0.00 91 1021.3
20190220024034 35 281 0.0 2.0 0.00 0.00 0.00 90 1021.3
20190220023524 36 280 1.0 2.0 0.00 0.00 0.00 89 1021.2
20190220023028 36 291 1.0 3.0 0.00 0.00 0.00 89 1021.2
20190220022518 37 296 2.0 3.0 0.00 0.00 0.00 91 1021.2
20190220022020 37 286 2.0 3.0 0.00 0.00 0.00 88 1021.2
20190220021529 38 285 1.0 2.0 0.00 0.00 0.00 90 1021.2
20190220021031 37 285 2.0 2.0 0.00 0.00 0.00 89 1021.2
20190220020515 38 271 0.0 1.0 0.00 0.00 0.00 89 1021.2
20190220020114 38 270 0.0 1.0 0.00 0.00 0.00 89 1021.2
20190220015526 38 270 0.0 1.0 0.00 0.00 0.00 86 1021.2
20190220015028 39 253 0.0 1.0 0.00 0.00 0.00 88 1021.1
20190220014517 39 233 0.0 2.0 0.00 0.00 0.00 86 1021.2
20190220014020 39 236 1.0 2.0 0.00 0.00 0.00 84 1021.2
20190220013521 40 243 1.0 1.0 0.00 0.00 0.00 85 1021.1
20190220013023 40 107 0.0 0.0 0.00 0.00 0.00 85 1021.1
20190220012533 41 107 0.0 1.0 0.00 0.00 0.00 85 1021.1
20190220012017 41 107 0.0 1.0 0.00 0.00 0.00 85 1021.1
20190220011522 41 107 0.0 1.0 0.00 0.00 0.00 86 1021.0
20190220011029 41 115 0.0 1.0 0.00 0.00 0.00 86 1021.0
20190220010521 41 85 0.0 1.0 0.00 0.00 0.00 85 1021.0
20190220010057 41 78 0.0 0.0 0.00 0.00 0.00 85 1021.0
20190220005520 41 82 0.0 0.0 0.00 0.00 0.00 85 1021.1
20190220005022 41 82 0.0 1.0 0.00 0.00 0.00 85 1021.0
20190220004527 41 82 0.0 3.0 0.00 0.00 0.00 85 1021.0
20190220004034 41 68 2.0 3.0 0.00 0.00 0.00 83 1021.0
20190220003523 41 63 3.0 3.0 0.00 0.00 0.00 83 1021.0
20190220003019 42 69 2.0 3.0 0.00 0.00 0.00 80 1021.0
20190220002525 43 86 0.0 1.0 0.00 0.00 0.00 80 1020.9
20190220002031 43 126 0.0 0.0 0.00 0.00 0.00 81 1020.8
20190220001518 43 127 0.0 0.0 0.00 0.00 0.00 81 1020.7
20190220001016 43 114 0.0 1.0 0.00 0.00 0.00 82 1020.7
20190220000525 43 105 0.0 1.0 0.00 0.00 0.00 81 1020.7
20190220000042 43 105 0.0 1.0 0.00 0.00 0.00 82 1020.7
20190219235530 42 105 1.0 2.0 0.00 0.00 0.00 82 1020.7
20190219235032 42 86 1.0 3.0 0.00 0.00 0.00 81 1020.8
20190219234521 42 88 2.0 3.0 0.00 0.00 0.00 80 1020.8
20190219234024 43 101 0.0 0.0 0.00 0.00 0.00 80 1020.8
20190219233527 43 101 0.0 0.0 0.00 0.00 0.00 79 1020.7
20190219233029 43 101 0.0 0.0 0.00 0.00 0.00 79 1020.7
20190219232516 44 85 0.0 0.0 0.00 0.00 0.00 80 1020.6
20190219232024 43 84 0.0 0.0 0.00 0.00 0.00 80 1020.6
20190219231530 44 85 0.0 0.0 0.00 0.00 0.00 79 1020.6
20190219231032 44 85 0.0 0.0 0.00 0.00 0.00 80 1020.6
20190219230522 44 85 0.0 0.0 0.00 0.00 0.00 80 1020.6
20190219230055 43 85 0.0 0.0 0.00 0.00 0.00 80 1020.6
20190219225529 43 84 0.0 0.0 0.00 0.00 0.00 79 1020.6
20190219225030 44 242 0.0 2.0 0.00 0.00 0.00 79 1020.6
20190219224519 44 249 0.0 2.0 0.00 0.00 0.00 79 1020.6
20190219224026 44 249 2.0 3.0 0.00 0.00 0.00 79 1020.5
20190219223535 44 251 2.0 3.0 0.00 0.00 0.00 78 1020.6
20190219223021 44 255 3.0 4.0 0.00 0.00 0.00 78 1020.5
20190219222525 44 264 3.0 3.0 0.00 0.00 0.00 78 1020.5
20190219222029 44 259 2.0 3.0 0.00 0.00 0.00 77 1020.6
20190219221516 44 249 2.0 2.0 0.00 0.00 0.00 76 1020.6
20190219221032 46 260 1.0 2.0 0.00 0.00 0.00 73 1020.6
20190219220535 46 228 0.0 0.0 0.00 0.00 0.00 75 1020.6
20190219220052 46 228 0.0 0.0 0.00 0.00 0.00 73 1020.6
20190219215526 47 228 0.0 1.0 0.00 0.00 0.00 73 1020.6
20190219215017 47 228 0.0 2.0 0.00 0.00 0.00 73 1020.4
20190219214520 47 242 1.0 3.0 0.00 0.00 0.00 73 1020.4
20190219214023 47 243 2.0 3.0 0.00 0.00 0.00 73 1020.4
20190219213518 47 249 3.0 4.0 0.00 0.00 0.00 72 1020.4
20190219213036 47 250 3.0 4.0 0.00 0.00 0.00 72 1020.3
20190219212530 47 236 2.0 3.0 0.00 0.00 0.00 72 1020.3
20190219212019 48 255 3.0 3.0 0.00 0.00 0.00 71 1020.3
20190219211531 48 249 2.0 3.0 0.00 0.00 0.00 71 1020.3
20190219211022 48 218 1.0 2.0 0.00 0.00 0.00 71 1020.2
20190219210519 48 217 0.0 1.0 0.00 0.00 0.00 71 1020.2
20190219210040 48 221 0.0 0.0 0.00 0.00 0.00 71 1020.1
20190219205518 48 210 0.0 1.0 0.00 0.00 0.00 71 1020.2
20190219205021 48 224 0.0 1.0 0.00 0.00 0.00 71 1020.1
20190219204533 48 217 0.0 0.0 0.00 0.00 0.00 71 1020.1
20190219204028 48 217 0.0 1.0 0.00 0.00 0.00 71 1020.1
20190219203525 48 211 1.0 1.0 0.00 0.00 0.00 71 1020.0
20190219203022 48 197 0.0 2.0 0.00 0.00 0.00 71 1020.0
20190219202523 48 166 1.0 2.0 0.00 0.00 0.00 71 1020.0
20190219202017 48 139 0.0 2.0 0.00 0.00 0.00 70 1019.9
20190219201533 49 153 2.0 2.0 0.00 0.00 0.00 69 1019.9
20190219201029 49 266 0.0 1.0 0.00 0.00 0.00 69 1019.9
20190219200534 49 267 0.0 2.0 0.00 0.00 0.00 69 1019.8
20190219200043 50 281 2.0 5.0 0.00 0.00 0.00 68 1019.8
20190219195531 50 282 3.0 6.0 0.00 0.00 0.00 68 1019.7
20190219194525 49 288 5.0 7.0 0.00 0.00 0.00 69 1019.6
20190219194034 49 297 4.0 7.0 0.00 0.00 0.00 71 1019.5
20190219193525 49 295 4.0 6.0 0.00 0.00 0.00 71 1019.5
20190219193029 48 297 4.0 7.0 0.00 0.00 0.00 71 1019.5
20190219192518 49 291 5.0 7.0 0.00 0.00 0.00 70 1019.4
20190219192024 49 291 4.0 7.0 0.00 0.00 0.00 69 1019.4
20190219191517 49 281 5.0 7.0 0.00 0.00 0.00 68 1019.4
20190219191024 49 315 2.0 4.0 0.00 0.00 0.00 68 1019.4